Regional Weather Roundup
Issued by NWS

Home | Current Version | Previous Version | Text Only | Print | Product List | Glossary Off
Versions: 1 2 3 4 5 6 7 8 9 10 11 12 13 14 15 16 17 18 19 20 21 22 23 24 25 26 27 28 29 30 31 32 33 34 35 36 37 38 39 40 41 42 43 44 45 46 47 48 49

000
ASUS45 KSLC 130410
RWRUT

UTAH REGIONAL WEATHER ROUNDUP
NATIONAL WEATHER SERVICE SALT LAKE CITY UT
1000 PM MDT SAT JUL 12 2014

UTZ001>011-023>025-130500-

NORTHERN UTAH

CITY           SKY/WX    TMP DP  RH WIND       PRES   REMARKS
HILL AFB       NOT AVBL
LOGAN          CLEAR     78  57  48 E3        30.16R
OGDEN          PTCLDY    83  49  30 E3        30.15R
PROVO AIRPORT  CLEAR     82  57  42 NW10      30.16R
SALT LAKE CITY PTCLDY    84  58  40 NW7       30.13R
VERNAL         CLEAR     78  49  35 W7        30.20R
WENDOVER       CLOUDY    88  46  23 N15       30.15R
HEBER CITY     CLEAR     68  55  64 SE5       30.24R
WEST JORDAN    CLEAR     84  54  34 W9        30.17

$$

UTZ012>022-026-027-130500-

SOUTHERN UTAH

CITY           SKY/WX    TMP DP  RH WIND       PRES   REMARKS
BRYCE CANYON   CLOUDY    69  55  60 N5        30.37R
CEDAR CITY     CLEAR     77  35  21 CALM      30.19R
MILFORD        CLEAR     81  41  24 N7        30.14R
MOAB/CYNLANDS  PTCLDY    88  45  22 N7        30.06R
PRICE          CLEAR     77  51  40 N9        30.25R
ST GEORGE      NOT AVBL

$$

REGIONAL REPORTS     COLORADO/ARIZONA

CITY           SKY/WX    TMP DP  RH WIND       PRES   REMARKS
CRAIG, CO      PTCLDY    60  57  89 CALM      30.31R
GRAND JUNCTION MOCLDY    87  47  24 NE12      30.11R
RIFLE          PTCLDY    77  54  44 E3        30.20R
MONTROSE       PTCLDY    79  49  34 SE12      30.22R
CORTEZ         CLEAR     72  49  44 NE5       30.22R
PAGE, AZ       CLEAR     92  41  17 SE3       30.03R
GRAND CANYON   CLEAR     66  51  58 CALM      30.27R
KINGMAN        PTCLDY    87  46  24 SW9       30.02R
FLAGSTAFF      MOCLDY    61  57  87 CALM      30.33R

$$

REGIONAL REPORTS    NEVADA/IDAHO/WYOMING

CITY           SKY/WX    TMP DP  RH WIND       PRES   REMARKS
LAS VEGAS, NV  MOCLDY   100  39  12 S5        29.87R HX  95
ELY            PTCLDY    78  46  32 NE8       30.25R
ELKO           CLEAR     80  46  30 NE13      30.20R
POCATELLO, ID  CLEAR     74  52  46 E7        30.20R
BURLEY         PTCLDY    77  54  44 E6        30.15R
EVANSTON, WY   MOCLDY    74  47  38 NE6       30.39R
ROCK SPRINGS   MOCLDY    67  50  54 NE23G33   30.40R

$$


USA.gov is the U.S. government's official web portal to all federal, state and local government web resources and services.